User: anonymous   Login
Location: Unspecified
(0.0000°N, 0.0000°E)
Time: 11:14:43
(UTC+00:00)
Language:

SIMPL - Orbit

View from above orbital plane
View from above orbital plane
View from above satellite
View from above satellite

Ground track
Ground track

The orbit data is extracted from the following two-line orbital elements,

1 42983U 98067NF  18019.18537485  .00002624  00000-0  45218-4 0  9994
2 42983  51.6435  41.1026 0004468  15.7090  21.1996 15.55171090 13028
Epoch (UTC): 19 January 2018 04:26:56
Eccentricity: 0.0004468
inclination: 51.6435°
perigee height: 398 km
apogee height: 404 km
right ascension of ascending node: 41.1026°
argument of perigee: 15.7090°
revolutions per day: 15.55171090
mean anomaly at epoch: 21.1996°
orbit number at epoch: 1302

The dashed part of the orbit path shows where the satellite is in the earth's shadow,  

DLR